Find Starlink 33805

NORAD ID: 63590 Int'l Des: 2025-076 Owner: SPXS Country: US Constellation: starlink operational
LEOCIRCULAR

Live Position

Loading 3D Globe...

About Starlink 33805

Description loading...

Upcoming Passes

Passes for default location (London). Set your location on the main map for personalized predictions.

Altitude History

Loading altitude history...

Two-Line Element Set

1 63590U 25076X 26103.06669088 .00006912 00000-0 26044-3 0 9995
2 63590 43.0016 127.9062 0001354 272.6863 87.3833 15.27583627 57081
Epoch: Apr 13, 2026 • Age: 31 hours

Current Status

Altitude 483.6 km
Velocity 7.63 km/s
Sub-Earth Point -6.92°S, 136.42°E
Launch Date Apr 14, 2025
Age 0.9 years
Type internet

Technical Details

Classification Payload
Mass 575.00 kg
Dry Mass 530.00 kg
Total Mass 575.00 kg
Length 0.30 m
Diameter 4.10 m
Span 29.00 m
Shape Box + pan
Manufacturer SPXS
Bus Type Starlink V2MO
Phase Status In Orbit
Owner/State SPXS/US

Most Searched